User: anonymous   Login
Location: Unspecified
(0.0000°N, 0.0000°E)
Time: 21:17:48
(UTC+00:00)
Language:

NODES 2 - Orbit

View from above orbital plane
View from above orbital plane
View from above satellite
View from above satellite

Ground track
Ground track

The orbit data is extracted from the following two-line orbital elements,

1 41478U 98067HY  17141.43135113 +.00061260 +00000-0 +34346-3 0  9997
2 41478 051.6305 142.4524 0004590 024.9309 335.1913 15.78687925057839
Epoch (UTC): 21 May 2017 10:21:08
Eccentricity: 0.0004590
inclination: 51.6305°
perigee height: 331 km
apogee height: 337 km
right ascension of ascending node: 142.4524°
argument of perigee: 24.9309°
revolutions per day: 15.78687925
mean anomaly at epoch: 335.1913°
orbit number at epoch: 5783

The dashed part of the orbit path shows where the satellite is in the earth's shadow,  

DLR